H1 CPF 2 NER 2023 12 16 9 350 01 glonass143 H2 2007501 9143 46805 2023 12 16 0 0 0 2023 12 19 23 45 0 900 1 1 0 0 0 1 H9 10 0 60294 0.00000 0 8083479.516 -17599701.381 16598187.532 10 0 60294 900.00000 0 9395194.653 -18979510.691 14214081.638 10 0 60294 1800.00000 0 10392099.062 -20223444.757 11553792.973 10 0 60294 2700.00000 0 11080843.826 -21271636.836 8668970.211 10 0 60294 3600.00000 0 11480312.088 -22068863.206 5615648.132 10 0 60294 4500.00000 0 11620570.766 -22566924.715 2453158.596 10 0 60294 5400.00000 0 11541356.786 -22726753.475 -757024.976 10 0 60294 6300.00000 0 11290162.448 -22520155.092 -3952486.791 10 0 60294 7200.00000 0 10920001.632 -21931112.042 -7071087.603 10 0 60294 8100.00000 0 10486952.240 -20956592.300 -10052178.927 10 0 60294 9000.00000 0 10047579.723 -19606828.242 -12837788.184 10 0 60294 9900.00000 0 9656351.678 -17905053.268 -15373750.952 10 0 60294 10800.00000 0 9363153.730 -15886706.596 -17610767.765 10 0 60294 11700.00000 0 9211012.455 -13598139.072 -19505364.594 10 0 60294 12600.00000 0 9234122.199 -11094873.890 -21020738.146 10 0 60294 13500.00000 0 9456259.528 -8439494.700 -22127469.755 10 0 60294 14400.00000 0 9889652.513 -5699249.004 -22804094.285 10 0 60294 15300.00000 0 10534352.694 -2943466.547 -23037513.435 10 0 60294 16200.00000 0 11378136.330 -240899.783 -22823245.928 10 0 60294 17100.00000 0 12396939.188 2342903.450 -22165510.211 10 0 60294 18000.00000 0 13555806.735 4748086.458 -21077138.419 10 0 60294 18900.00000 0 14810319.934 6922726.918 -19579323.581 10 0 60294 19800.00000 0 16108436.936 8824744.579 -17701205.046 10 0 60294 20700.00000 0 17392673.465 10423395.186 -15479300.243 10 0 60294 21600.00000 0 18602530.448 11700289.764 -12956793.706 10 0 60294 22500.00000 0 19677067.038 12649898.149 -10182697.068 10 0 60294 23400.00000 0 20557510.904 13279517.229 -7210896.260 10 0 60294 24300.00000 0 21189796.046 13608706.706 -4099104.398 10 0 60294 25200.00000 0 21526921.342 13668217.512 -907740.700 10 0 60294 26100.00000 0 21531030.435 13498459.232 2301242.631 10 0 60294 27000.00000 0 21175125.294 13147572.197 5465562.642 10 0 60294 27900.00000 0 20444341.089 12669186.428 8523813.489 10 0 60294 28800.00000 0 19336728.485 12119962.655 11416656.319 10 0 60294 29700.00000 0 17863510.046 11557019.640 14087968.075 10 0 60294 30600.00000 0 16048799.506 11035356.596 16485927.066 10 0 60294 31500.00000 0 13928795.031 10605379.529 18564014.476 10 0 60294 32400.00000 0 11550479.498 10310635.741 20281912.798 10 0 60294 33300.00000 0 8969881.170 10185851.860 21606284.300 10 0 60294 34200.00000 0 6249966.355 10255357.934 22511414.936 10 0 60294 35100.00000 0 3458250.683 10531963.914 22979711.750 10 0 60294 36000.00000 0 664227.208 11016335.972 23002044.492 10 0 60294 36900.00000 0 -2063282.948 11696899.247 22577925.020 10 0 60294 37800.00000 0 -4658748.525 12550271.714 21715520.946 10 0 60294 38700.00000 0 -7062406.982 13542211.750 20431502.952 10 0 60294 39600.00000 0 -9222502.213 14629040.488 18750728.189 10 0 60294 40500.00000 0 -11097188.913 15759480.116 16705765.173 10 0 60294 41400.00000 0 -12656025.020 16876831.720 14336268.554 10 0 60294 42300.00000 0 -13880990.550 17921401.692 11688215.106 10 0 60294 43200.00000 0 -14766990.788 18833074.993 8813015.082 10 0 60294 44100.00000 0 -15321823.305 19553926.918 5766515.636 10 0 60294 45000.00000 0 -15565610.669 20030763.023 2607915.549 10 0 60294 45900.00000 0 -15529723.334 20217479.477 -601387.639 10 0 60294 46800.00000 0 -15255238.734 20077143.426 -3798995.313 10 0 60294 47700.00000 0 -14791002.364 19583704.550 -6922726.350 10 0 60294 48600.00000 0 -14191373.583 18723264.502 -9911832.177 10 0 60294 49500.00000 0 -13513752.273 17494849.615 -12708183.899 10 0 60294 50400.00000 0 -12815991.788 15910653.270 -15257407.652 10 0 60294 51300.00000 0 -12153808.372 13995736.834 -17509945.556 10 0 60294 52200.00000 0 -11578297.148 11787200.924 -19422021.278 10 0 60294 53100.00000 0 -11133660.137 9332861.141 -20956491.301 10 0 60294 54000.00000 0 -10855242.469 6689483.134 -22083565.481 10 0 60294 54900.00000 0 -10767959.746 3920650.295 -22781383.209 10 0 60294 55800.00000 0 -10885182.795 1094352.591 -23036434.413 10 0 60294 56700.00000 0 -11208126.603 -1719603.507 -22843817.732 10 0 60294 57600.00000 0 -11725768.964 -4452256.774 -22207331.339 10 0 60294 58500.00000 0 -12415302.009 -7038114.614 -21139395.014 10 0 60294 59400.00000 0 -13243097.437 -9417629.806 -19660805.298 10 0 60294 60300.00000 0 -14166144.691 -11539428.570 -17800328.583 10 0 60294 61200.00000 0 -15133901.482 -13362198.274 -15594140.078 10 0 60294 62100.00000 0 -16090478.739 -14856157.358 -13085119.463 10 0 60294 63000.00000 0 -16977067.981 -16004047.467 -10322016.807 10 0 60294 63900.00000 0 -17734508.863 -16801607.659 -7358504.850 10 0 60294 64800.00000 0 -18305888.637 -17257512.252 -4252136.040 10 0 60294 65700.00000 0 -18639063.925 -17392776.277 -1063224.567 10 0 60294 66600.00000 0 -18688998.295 -17239654.753 2146324.727 10 0 60294 67500.00000 0 -18419816.930 -16840083.262 5314217.684 10 0 60294 68400.00000 0 -17806491.487 -16243726.414 8378978.942 10 0 60294 69300.00000 0 -16836083.826 -15505717.206 11281143.187 10 0 60294 70200.00000 0 -15508495.774 -14684183.078 13964406.443 10 0 60294 71100.00000 0 -13836692.819 -13837663.214 16376715.163 10 0 60294 72000.00000 0 -11846391.624 -13022526.033 18471272.233 10 0 60294 72900.00000 0 -9575223.533 -12290495.488 20207440.795 10 0 60294 73800.00000 0 -7071408.048 -11686390.097 21551528.876 10 0 60294 74700.00000 0 -4391990.487 -11246169.508 22477440.132 10 0 60294 75600.00000 0 -1600716.023 -10995370.449 22967178.613 10 0 60294 76500.00000 0 1234372.761 -10947997.599 23011198.150 10 0 60294 77400.00000 0 4043516.218 -11105915.939 22608589.773 10 0 60294 78300.00000 0 6757889.962 -11458770.256 21767103.480 10 0 60294 79200.00000 0 9312220.213 -11984435.540 20503003.634 10 0 60294 80100.00000 0 11647254.476 -12649979.837 18840760.238 10 0 60294 81000.00000 0 13711985.739 -13413099.708 16812581.358 10 0 60294 81900.00000 0 15465538.287 -14223968.505 14457794.928 10 0 60294 82800.00000 0 16878637.009 -15027420.180 11822091.139 10 0 60294 83700.00000 0 17934599.332 -15765376.935 8956639.429 10 0 60294 84600.00000 0 18629808.589 -16379418.450 5917096.679 10 0 60294 85500.00000 0 18973649.371 -16813383.994 2762525.718 10 0 60295 0.00000 0 18987907.991 -17015897.049 -445754.520 10 0 60295 900.00000 0 18705663.774 -16942705.045 -3645366.229 10 0 60295 1800.00000 0 18169718.529 -16558734.124 -6774089.134 10 0 60295 2700.00000 0 17430631.206 -15839771.375 -9771077.450 10 0 60295 3600.00000 0 16544441.370 -14773701.970 -12578048.642 10 0 60295 4500.00000 0 15570178.508 -13361247.988 -15140421.841 10 0 60295 5400.00000 0 14567263.053 -11616176.681 -17408382.903 10 0 60295 6300.00000 0 13592909.453 -9564968.376 -19337855.054 10 0 60295 7200.00000 0 12699641.352 -7245957.118 -20891356.082 10 0 60295 8100.00000 0 11933023.844 -4707979.269 -22038725.542 10 0 60295 9000.00000 0 11329708.405 -2008585.909 -22757708.162 10 0 60295 9900.00000 0 10915872.577 788106.907 -23034382.529 10 0 60295 10800.00000 0 10706119.720 3613841.033 -22863427.251 10 0 60295 11700.00000 0 10702884.575 6398812.005 -22248219.918 10 0 60295 12600.00000 0 10896369.067 9074330.311 -21200767.314 10 0 60295 13500.00000 0 11265010.475 11575438.256 -19741468.545 10 0 60295 14400.00000 0 11776461.731 13843374.405 -17898715.810 10 0 60295 15300.00000 0 12389042.122 15827783.920 -15708340.571 10 0 60295 16200.00000 0 13053596.929 17488583.768 -13212915.857 10 0 60295 17100.00000 0 13715687.367 18797406.114 -10460928.090 10 0 60295 18000.00000 0 14318018.227 19738560.734 -7505834.466 10 0 60295 18900.00000 0 14803000.638 20309477.439 -4405024.164 10 0 60295 19800.00000 0 15115341.586 20520611.152 -1218703.544 10 0 60295 20700.00000 0 15204550.678 20394814.795 1991272.842 10 0 60295 21600.00000 0 15027258.082 19966207.419 5162602.606 10 0 60295 22500.00000 0 14549245.515 19278586.116 8233743.791 10 0 60295 23400.00000 0 13747104.239 18383449.326 11145107.423 10 0 60295 24300.00000 0 12609449.673 17337715.267 13840211.211 10 0 60295 25200.00000 0 11137640.915 16201231.907 16266772.115 10 0 60295 26100.00000 0 9345974.110 15034183.302 18377716.814 10 0 60295 27000.00000 0 7261340.660 13894501.321 20132090.884 10 0 60295 27900.00000 0 4922363.426 12835391.202 21495849.564 10 0 60295 28800.00000 0 2378045.824 11903074.506 22442515.300 10 0 60295 29700.00000 0 -314011.216 11134843.710 22953689.847 10 0 60295 30600.00000 0 -3089751.614 10557509.608 23019411.376 10 0 60295 31500.00000 0 -5881078.089 10186306.274 22638349.880 10 0 60295 32400.00000 0 -8618438.787 10024299.272 21817837.044 10 0 60295 33300.00000 0 -11233480.376 10062321.858 20573729.716 10 0 60295 34200.00000 0 -13661658.435 10279441.922 18930109.077 10 0 60295 35100.00000 0 -15844697.506 10643940.297 16918820.648 10 0 60295 36000.00000 0 -17732799.140 11114759.525 14578863.206 10 0 60295 36900.00000 0 -19286506.317 11643362.431 11955637.678 10 0 60295 37800.00000 0 -20478146.785 12175922.300 9100069.879 10 0 60295 38700.00000 0 -21292795.114 12655752.316 6067623.572 10 0 60295 39600.00000 0 -21728713.362 13025871.395 2917222.854 10 0 60295 40500.00000 0 -21797251.988 13231597.532 -289895.204 10 0 60295 41400.00000 0 -21522215.502 13223058.228 -3491374.993 10 0 60295 42300.00000 0 -20938719.900 12957510.853 -6624960.064 10 0 60295 43200.00000 0 -20091590.558 12401373.719 -9629709.672 10 0 60295 44100.00000 0 -19033368.761 11531880.743 -12447189.745 10 0 60295 45000.00000 0 -17822011.615 10338288.610 -15022614.314 10 0 60295 45900.00000 0 -16518383.030 8822584.275 -17305914.660 10 0 60295 46800.00000 0 -15183642.136 6999661.884 -19252714.992 10 0 60295 47700.00000 0 -13876639.615 4896960.615 -20825195.535 10 0 60295 48600.00000 0 -12651431.790 2553577.715 -21992826.368 10 0 60295 49500.00000 0 -11555017.039 18893.012 -22732958.056 10 0 60295 50400.00000 0 -10625389.433 -2649238.339 -23031258.031 10 0 60295 51300.00000 0 -9889990.860 -5386650.148 -22881984.745 10 0 60295 52200.00000 0 -9364625.950 -8125297.049 -22288094.771 10 0 60295 53100.00000 0 -9052884.535 -10795853.256 -21261181.166 10 0 60295 54000.00000 0 -8946095.012 -13330370.810 -19821244.591 10 0 60295 54900.00000 0 -9023809.625 -15664887.411 -17996301.765 10 0 60295 55800.00000 0 -9254800.430 -17741876.020 -15821838.902 10 0 60295 56700.00000 0 -9598523.257 -19512435.020 -13340120.677 10 0 60295 57600.00000 0 -10006987.308 -20938128.485 -10599368.020 10 0 60295 58500.00000 0 -10426951.059 -21992400.613 -7652820.636 10 0 60295 59400.00000 0 -10802351.316 -22661506.167 -4557702.403 10 0 60295 60300.00000 0 -11076862.488 -22944918.937 -1374109.761 10 0 60295 61200.00000 0 -11196477.628 -22855202.082 1836155.195 10 0 60295 62100.00000 0 -11112001.871 -22417346.711 5010784.094 10 0 60295 63000.00000 0 -10781352.581 -21667607.364 8088170.713 10 0 60295 63900.00000 0 -10171568.709 -20651884.019 11008604.826 10 0 60295 64800.00000 0 -9260444.125 -19423719.241 13715428.270 10 0 60295 65700.00000 0 -8037715.484 -18041994.949 16156130.927 10 0 60295 66600.00000 0 -6505753.935 -16568425.747 18283365.571 10 0 60295 67500.00000 0 -4679730.694 -15064953.949 20055862.319 10 0 60295 68400.00000 0 -2587248.436 -13591155.292 21439225.448 10 0 60295 69300.00000 0 -267452.703 -12201763.662 22406597.675 10 0 60295 70200.00000 0 2230340.989 -10944417.939 22939179.537 10 0 60295 71100.00000 0 4848448.584 -9857724.670 23026594.210 10 0 60295 72000.00000 0 7522973.967 -8969717.091 22667090.891 10 0 60295 72900.00000 0 10186232.235 -8296774.417 21867582.785 10 0 60295 73800.00000 0 12769340.422 -7843046.271 20643518.675 10 0 60295 74700.00000 0 15204869.046 -7600406.046 19018590.007 10 0 60295 75600.00000 0 17429445.207 -7548935.019 17024278.500 10 0 60295 76500.00000 0 19386199.511 -7657916.798 14699252.186 10 0 60295 77400.00000 0 21026955.264 -7887300.262 12088620.802 10 0 60295 78300.00000 0 22314068.764 -8189569.345 9243064.279 10 0 60295 79200.00000 0 23221843.800 -8511940.645 6217850.701 10 0 60295 80100.00000 0 23737461.044 -8798795.773 3071762.576 10 0 60295 81000.00000 0 23861383.312 -8994245.103 -134047.653 10 0 60295 81900.00000 0 23607219.649 -9044713.779 -3337250.330 10 0 60295 82800.00000 0 23001054.078 -8901439.587 -6475555.730 10 0 60295 83700.00000 0 22080267.522 -8522775.916 -9487931.229 10 0 60295 84600.00000 0 20891902.907 -7876201.168 -12315794.088 10 0 60295 85500.00000 0 19490642.815 -6939948.417 -14904155.841 10 0 60296 0.00000 0 17936485.579 -5704185.384 -17202695.280 10 0 60296 900.00000 0 16292217.283 -4171693.042 -19166739.950 10 0 60296 1800.00000 0 14620788.586 -2358014.887 -20758133.874 10 0 60296 2700.00000 0 12982704.066 -291067.370 -21945978.872 10 0 60296 3600.00000 0 11433535.799 1989771.537 -22707232.202 10 0 60296 4500.00000 0 10021664.450 4435058.917 -23027150.607 10 0 60296 5400.00000 0 8786342.217 6987110.979 -22899572.470 10 0 60296 6300.00000 0 7756158.037 9582179.216 -22327033.052 10 0 60296 7200.00000 0 6947968.439 12152888.584 -21320711.011 10 0 60296 8100.00000 0 6366337.733 14630836.824 -19900207.519 10 0 60296 9000.00000 0 6003509.829 16949247.285 -18093162.437 10 0 60296 9900.00000 0 5839911.702 19045565.366 -15934715.009 10 0 60296 10800.00000 0 5845166.173 20863891.019 -13466819.526 10 0 60296 11700.00000 0 5979570.389 22357146.479 -10737429.094 10 0 60296 12600.00000 0 6195976.801 23488889.394 -7799563.316 10 0 60296 13500.00000 0 6441996.521 24234696.224 -4710277.930 10 0 60296 14400.00000 0 6662431.431 24583058.766 -1529556.430 10 0 60296 15300.00000 0 6801831.745 24535756.943 1680854.667 10 0 60296 16200.00000 0 6807070.482 24107692.960 4858644.138 10 0 60296 17100.00000 0 6629825.638 23326194.457 7942144.557 10 0 60296 18000.00000 0 6228864.780 22229816.511 10871527.332 10 0 60296 18900.00000 0 5572035.158 20866693.272 13589961.087 10 0 60296 19800.00000 0 4637874.860 19292508.692 16044711.003 10 0 60296 20700.00000 0 3416776.528 17568171.634 18188158.016 10 0 60296 21600.00000 0 1911653.865 15757292.696 19978718.507 10 0 60296 22500.00000 0 138081.964 13923568.151 21381647.162 10 0 60296 23400.00000 0 -1876095.580 12128179.996 22369707.952 10 0 60296 24300.00000 0 -4091677.701 10427320.198 22923700.774 10 0 60296 25200.00000 0 -6459498.472 8869941.853 23032833.940 10 0 60296 26100.00000 0 -8922244.746 7495830.468 22694935.513 10 0 60296 27000.00000 0 -11416624.649 6334075.173 21916499.385 10 0 60296 27900.00000 0 -13875798.100 5402003.073 20712564.927 10 0 60296 28800.00000 0 -16231969.427 4704620.736 19106432.014 10 0 60296 29700.00000 0 -18419035.164 4234585.718 17129216.267 10 0 60296 30600.00000 0 -20375177.478 3972708.969 14819252.283 10 0 60296 31500.00000 0 -22045295.464 3888966.701 12221355.632 10 0 60296 32400.00000 0 -23383172.954 3943978.893 9385957.203 10 0 60296 33300.00000 0 -24353292.118 4090891.801 6368126.154 10 0 60296 34200.00000 0 -24932216.644 4277584.638 3226500.207 10 0 60296 35100.00000 0 -25109486.180 4449106.604 22144.076 10 0 60296 36000.00000 0 -24887984.196 4550240.468 -3182641.469 10 0 60296 36900.00000 0 -24283763.569 4528083.296 -6325536.160 10 0 60296 37800.00000 0 -23325337.199 4334534.021 -9345418.024 10 0 60296 38700.00000 0 -22052463.587 3928581.400 -12183557.953 10 0 60296 39600.00000 0 -20514478.758 3278294.347 -14784767.031 10 0 60296 40500.00000 0 -18768245.071 2362429.315 -17098473.685 10 0 60296 41400.00000 0 -16875803.536 1171585.665 -19079709.353 10 0 60296 42300.00000 0 -14901828.646 -291140.755 -20689983.277 10 0 60296 43200.00000 0 -12910992.767 -2010034.379 -21898029.560 10 0 60296 44100.00000 0 -10965350.596 -3957173.161 -22680412.210 10 0 60296 45000.00000 0 -9121853.068 -6093361.814 -23021976.900 10 0 60296 45900.00000 0 -7430094.258 -8369546.789 -22916141.121 10 0 60296 46800.00000 0 -5930384.793 -10728654.598 -22365017.617 10 0 60296 47700.00000 0 -4652231.357 -13107777.366 -21379369.107 10 0 60296 48600.00000 0 -3613284.718 -15440615.094 -19978395.472 10 0 60296 49500.00000 0 -2818798.967 -17660073.337 -18189357.689 10 0 60296 50400.00000 0 -2261623.236 -19700908.489 -16047045.871 10 0 60296 51300.00000 0 -1922724.836 -21502310.819 -13593101.664 10 0 60296 52200.00000 0 -1772220.502 -23010317.911 -10875208.061 10 0 60296 53100.00000 0 -1770871.147 -24179958.098 -7946162.297 10 0 60296 54000.00000 0 -1871976.039 -24977034.718 -4862849.754 10 0 60296 54900.00000 0 -2023585.614 -25379476.960 -1685138.837 10 0 60296 55800.00000 0 -2170938.692 -25378201.152 1525281.584 10 0 60296 56700.00000 0 -2259020.499 -24977446.845 4706099.446 10 0 60296 57600.00000 0 -2235132.851 -24194574.063 7795588.078 10 0 60296 58500.00000 0 -2051367.437 -23059330.590 10733802.450 10 0 60296 59400.00000 0 -1666877.282 -21612620.401 13463739.846 10 0 60296 60300.00000 0 -1049850.107 -19904825.024 15932442.545 10 0 60296 61200.00000 0 -179099.839 -17993748.273 18092021.312 10 0 60296 62100.00000 0 954791.337 -15942270.220 19900580.291 10 0 60296 63000.00000 0 2348829.215 -13815808.209 21323025.830 10 0 60296 63900.00000 0 3987490.091 -11679690.487 22331744.130 10 0 60296 64800.00000 0 5843135.666 -9596551.410 22907135.110 10 0 60296 65700.00000 0 7876944.364 -7623856.064 23037992.548 10 0 60296 66600.00000 0 10040321.595 -5811656.687 22721723.370 10 0 60296 67500.00000 0 12276731.642 -4200673.538 21964401.836 10 0 60296 68400.00000 0 14523876.273 -2820779.401 20780657.282 10 0 60296 69300.00000 0 16716130.544 -1689950.225 19193397.109 10 0 60296 70200.00000 0 18787135.360 -813725.063 17233369.668 10 0 60296 71100.00000 0 20672439.476 -185197.307 14938574.680 10 0 60296 72000.00000 0 22312081.070 214462.896 12353531.824 10 0 60296 72900.00000 0 23653001.201 414977.488 9528420.947 10 0 60296 73800.00000 0 24651187.981 455464.443 6518110.001 10 0 60296 74700.00000 0 25273461.267 382540.435 3381089.367 10 0 60296 75600.00000 0 25498822.489 248102.928 178333.257 10 0 60296 76500.00000 0 25319312.379 106886.228 -3027889.379 10 0 60296 77400.00000 0 24740340.031 13895.780 -6175230.728 10 0 60296 78300.00000 0 23780469.082 21830.345 -9202482.415 10 0 60296 79200.00000 0 22470669.770 178602.286 -12050771.770 10 0 60296 80100.00000 0 20853068.280 525062.062 -14664711.986 10 0 60296 81000.00000 0 18979246.059 1093024.325 -16993483.214 10 0 60296 81900.00000 0 16908160.703 1903680.113 -18991823.157 10 0 60296 82800.00000 0 14703775.895 2966463.194 -20620907.696 10 0 60296 83700.00000 0 12432499.905 4278419.245 -21849104.511 10 0 60296 84600.00000 0 10160539.881 5824105.319 -22652585.358 10 0 60296 85500.00000 0 7951282.452 7576024.585 -23015785.479 10 0 60297 0.00000 0 5862809.837 9495578.664 -22931701.788 10 0 60297 900.00000 0 3945653.402 11534499.423 -22402024.403 10 0 60297 1800.00000 0 2240880.296 13636698.342 -21437099.596 10 0 60297 2700.00000 0 778588.150 15740460.152 -20055725.044 10 0 60297 3600.00000 0 -423127.807 17780887.080 -18284781.528 10 0 60297 4500.00000 0 -1358694.643 19692493.059 -16158708.314 10 0 60297 5400.00000 0 -2035048.205 21411839.732 -13718832.331 10 0 60297 6300.00000 0 -2471088.311 22880104.425 -11012564.064 10 0 60297 7200.00000 0 -2696626.953 24045472.934 -8092475.694 10 0 60297 8100.00000 0 -2750875.135 24865257.247 -5015279.343 10 0 60297 9000.00000 0 -2680533.255 25307649.703 -1840725.271 10 0 60297 9900.00000 0 -2537566.599 25353040.276 1369558.441 10 0 60297 10800.00000 0 -2376760.716 24994841.945 4553262.033 10 0 60297 11700.00000 0 -2253160.597 24239789.743 7648602.647 10 0 60297 12600.00000 0 -2219502.420 23107701.088 10595521.721 10 0 60297 13500.00000 0 -2323746.777 21630707.595 13336847.891 10 0 60297 14400.00000 0 -2606817.916 19851990.557 15819402.962 10 0 60297 15300.00000 0 -3100644.745 17824072.973 17995029.677 10 0 60297 16200.00000 0 -3826586.581 15606739.329 19821521.761 10 0 60297 17100.00000 0 -4794310.455 13264669.600 21263438.723 10 0 60297 18000.00000 0 -6001167.870 10864885.662 22292790.136 10 0 60297 18900.00000 0 -7432098.067 8474115.837 22889576.691 10 0 60297 19800.00000 0 -9060063.004 6156186.466 23042177.970 10 0 60297 20700.00000 0 -10846997.075 3969548.185 22747579.649 10 0 60297 21600.00000 0 -12745233.283 1965038.919 22011435.742 10 0 60297 22500.00000 0 -14699347.687 183975.741 20847964.434 10 0 60297 23400.00000 0 -16648346.397 -1343345.753 19279679.012 10 0 60297 24300.00000 0 -18528104.942 -2598682.789 17336958.418 10 0 60297 25200.00000 0 -20273958.997 -3576365.139 15057464.913 10 0 60297 26100.00000 0 -21823338.678 -4283282.095 12485419.326 10 0 60297 27000.00000 0 -23118336.407 -4738337.827 9670747.216 10 0 60297 27900.00000 0 -24108100.638 -4971398.604 6668111.908 10 0 60297 28800.00000 0 -24750954.631 -5021776.790 3535852.951 10 0 60297 29700.00000 0 -25016150.690 -4936316.204 334850.581 10 0 60297 30600.00000 0 -24885185.391 -4767160.502 -2872661.442 10 0 60297 31500.00000 0 -24352619.730 -4569299.803 -6024310.982 10 0 60297 32400.00000 0 -23426369.007 -4398000.355 -9058806.282 10 0 60297 33300.00000 0 -22127449.647 -4306227.101 -11917133.889 10 0 60297 34200.00000 0 -20489193.268 -4342169.291 -14543711.607 10 0 60297 35100.00000 0 -18555960.791 -4546974.919 -16887473.461 10 0 60297 36000.00000 0 -16381410.475 -4952790.725 -18902865.147 10 0 60297 36900.00000 0 -14026392.576 -5581191.485 -20550730.406 10 0 60297 37800.00000 0 -11556558.777 -6442065.603 -21799071.175 10 0 60297 38700.00000 0 -9039786.338 -7533004.698 -22623667.011 10 0 60297 39600.00000 0 -6543524.398 -8839223.469 -23008542.185 10 0 60297 40500.00000 0 -4132172.768 -10334013.776 -22946271.871 10 0 60297 41400.00000 0 -1864601.919 -11979714.429 -22438121.976 10 0 60297 42300.00000 0 208083.302 -13729156.505 -21494020.316 10 0 60297 43200.00000 0 2044444.079 -15527524.121 -20132360.002 10 0 60297 44100.00000 0 3614194.210 -17314553.222 -18379639.018 10 0 60297 45000.00000 0 4899212.217 -19026976.661 -16269943.022 10 0 60297 45900.00000 0 5894038.262 -20601113.582 -13844281.381 10 0 60297 46800.00000 0 6605836.647 -21975494.900 -11149789.200 10 0 60297 47700.00000 0 7053827.044 -23093415.061 -8238810.777 10 0 60297 48600.00000 0 7268209.845 -23905303.227 -5167882.226 10 0 60297 49500.00000 0 7288632.210 -24370814.520 -1996633.031 10 0 60297 50400.00000 0 7162260.639 -24460553.560 1213371.989 10 0 60297 51300.00000 0 6941542.397 -24157357.987 4399827.668 10 0 60297 52200.00000 0 6681751.097 -23457088.050 7500897.069 10 0 60297 53100.00000 0 6438420.758 -22368889.055 10456409.985 10 0 60297 54000.00000 0 6264777.155 -20914915.602 13209028.082 10 0 60297 54900.00000 0 6209275.280 -19129528.948 15705354.129 10 0 60297 55800.00000 0 6313347.069 -17058000.865 17896964.030 10 0 60297 56700.00000 0 6609454.593 -14754777.781 19741342.008 10 0 60297 57600.00000 0 7119530.998 -12281377.140 21202701.358 10 0 60297 58500.00000 0 7853875.179 -9704003.041 22252675.343 10 0 60297 59400.00000 0 8810547.187 -7090979.641 22870865.456 10 0 60297 60300.00000 0 9975290.533 -4510108.173 23045236.819 10 0 60297 61200.00000 0 11321985.592 -2026056.476 22772353.315 10 0 60297 62100.00000 0 12813616.258 302111.457 22057447.940 10 0 60297 63000.00000 0 14403710.616 2423164.269 20914326.736 10 0 60297 63900.00000 0 16038196.571 4295598.547 19365107.692 10 0 60297 64800.00000 0 17657595.905 5889122.634 17439798.979 10 0 60297 65700.00000 0 19199465.866 7185667.822 15175723.856 10 0 60297 66600.00000 0 20600986.649 8179885.377 12616802.582 10 0 60297 67500.00000 0 21801586.616 8879109.213 9812704.514 10 0 60297 68400.00000 0 22745495.059 9302786.383 6817886.229 10 0 60297 69300.00000 0 23384114.900 9481399.947 3690534.126 10 0 60297 70200.00000 0 23678114.939 9454930.244 491431.981 10 0 60297 71100.00000 0 23599152.779 9270920.249 -2717224.259 10 0 60297 72000.00000 0 23131154.975 8982227.572 -5873040.794 10 0 60297 72900.00000 0 22271099.576 8644559.107 -8914645.125 10 0 60297 73800.00000 0 21029267.276 8313893.610 -11782885.526 10 0 60297 74700.00000 0 19428949.882 8043902.280 -14421986.728 10 0 60297 75600.00000 0 17505627.828 7883477.440 -16780638.701 10 0 60297 76500.00000 0 15305650.853 7874474.688 -18812996.936 10 0 60297 77400.00000 0 12884476.920 8049764.700 -20479574.565 10 0 60297 78300.00000 0 10304542.921 8431677.528 -21748009.031 10 0 60297 79200.00000 0 7632855.955 9030905.516 -22593688.688 10 0 60297 80100.00000 0 4938405.528 9845911.420 -23000227.546 10 0 60297 81000.00000 0 2289504.189 10862866.980 -22959779.459 10 0 60297 81900.00000 0 -248833.199 12056124.781 -22473186.145 10 0 60297 82800.00000 0 -2617363.113 13389203.870 -21549956.582 10 0 60297 83700.00000 0 -4764837.978 14816248.010 -20208078.520 10 0 60297 84600.00000 0 -6649890.198 16283895.669 -18473665.903 10 0 60297 85500.00000 0 -8242498.412 17733483.521 -16380449.128 99